User: anonymous   Login
Location: Laverne
(36.7100°N, 99.8930°W)
Time: 13:49:20
(UTC-05:00)
Language:

Iridium 32 - Orbit

View from above orbital plane
View from above orbital plane
View from above satellite
View from above satellite

Ground track
Ground track

The orbit data is extracted from the following two-line orbital elements,

1 24945U 97051B   16146.37735056  .00000192  00000-0  61549-4 0  9991
2 24945  86.3966  89.2462 0002189  85.4210 274.7235 14.34217294978837
Epoch (UTC): 25 May 2016 09:03:23
Eccentricity: 0.0002189
inclination: 86.3966°
perigee height: 776 km
apogee height: 779 km
right ascension of ascending node: 89.2462°
argument of perigee: 85.4210°
revolutions per day: 14.34217294
mean anomaly at epoch: 274.7235°
orbit number at epoch: 97883

The dashed part of the orbit path shows where the satellite is in the earth's shadow,  

DLR